JES3155 SARI-SABE

Flight info

Callsign JES3155
Flight time 1h 28m
Altitude 34000
Route NAIDE UT667 GEMSU UN785 GUA UZ129 PAGON
Aircraft A320/M-SDGIRWYZ/EB1

Departure

Time 2026-04-15 20:45
Airport Cataratas Del Iguazú International Airport (SARI)

Arrival

Time 2026-04-15 22:13
Airport Aeroparque Jorge Newbery (SABE)
Time Latitude Longitude Altitude Speed Heading
2026-04-15 20:11 -25.73223 -54.47674 927 ft 0 kts 26°
2026-04-15 20:35 -25.73237 -54.47681 930 ft 4 kts 26°
2026-04-15 20:35 -25.73261 -54.47692 928 ft 4 kts 359°
2026-04-15 20:35 -25.73274 -54.47685 928 ft 3 kts 295°
2026-04-15 20:36 -25.73285 -54.47662 930 ft 1 kts 295°
2026-04-15 20:36 -25.73285 -54.47661 930 ft 0 kts 295°
2026-04-15 20:39 -25.73284 -54.47664 927 ft 1 kts 295°
2026-04-15 20:39 -25.73277 -54.47680 929 ft 5 kts 295°
2026-04-15 20:40 -25.73255 -54.47730 927 ft 10 kts 295°
2026-04-15 20:40 -25.73222 -54.47815 930 ft 14 kts 284°
2026-04-15 20:40 -25.73226 -54.47930 930 ft 16 kts 264°
2026-04-15 20:40 -25.73237 -54.48057 927 ft 17 kts 265°
2026-04-15 20:41 -25.73248 -54.48194 928 ft 17 kts 265°
2026-04-15 20:41 -25.73254 -54.48270 930 ft 7 kts 265°
2026-04-15 20:41 -25.73254 -54.48275 929 ft 1 kts 265°
2026-04-15 20:41 -25.73256 -54.48296 931 ft 6 kts 264°
2026-04-15 20:42 -25.73264 -54.48368 929 ft 14 kts 263°
2026-04-15 20:42 -25.73246 -54.48498 928 ft 20 kts 296°
2026-04-15 20:42 -25.73187 -54.48636 928 ft 21 kts 295°
2026-04-15 20:42 -25.73116 -54.48755 930 ft 14 kts 328°
2026-04-15 20:43 -25.73115 -54.48811 927 ft 5 kts 160°
2026-04-15 20:43 -25.73124 -54.48793 927 ft 0 kts 113°
2026-04-15 20:44 -25.73150 -54.48728 929 ft 36 kts 115°
2026-04-15 20:44 -25.73349 -54.48252 929 ft 97 kts 115°
2026-04-15 20:45 -25.73705 -54.47398 929 ft 144 kts 115°
2026-04-15 20:45 -25.74180 -54.46278 1108 ft 166 kts 114°
2026-04-15 20:45 -25.74658 -54.45138 1746 ft 161 kts 110°
2026-04-15 20:45 -25.75147 -54.43994 2179 ft 171 kts 109°
2026-04-15 20:46 -25.75673 -54.42736 2430 ft 190 kts 109°
2026-04-15 20:46 -25.76251 -54.41331 2668 ft 210 kts 109°
2026-04-15 20:46 -25.76923 -54.39789 2893 ft 237 kts 118°
2026-04-15 20:46 -25.78253 -54.38557 3224 ft 270 kts 155°
2026-04-15 20:47 -25.80164 -54.38113 3696 ft 289 kts 174°
2026-04-15 20:47 -25.82190 -54.38043 4471 ft 294 kts 181°
2026-04-15 20:47 -25.84244 -54.38081 5277 ft 297 kts 182°
2026-04-15 20:47 -25.86317 -54.38106 6223 ft 298 kts 181°
2026-04-15 20:48 -25.88391 -54.38068 7062 ft 300 kts 180°
2026-04-15 20:48 -25.90486 -54.37971 7810 ft 303 kts 178°
2026-04-15 20:48 -25.92609 -54.37830 8555 ft 307 kts 178°
2026-04-15 20:48 -25.94754 -54.37658 9303 ft 311 kts 177°
2026-04-15 20:49 -25.96924 -54.37473 9999 ft 315 kts 177°
2026-04-15 20:49 -25.99162 -54.37282 10288 ft 334 kts 177°
2026-04-15 20:49 -26.01559 -54.37081 10454 ft 356 kts 177°
2026-04-15 20:49 -26.04068 -54.36872 10877 ft 366 kts 178°
2026-04-15 20:50 -26.06621 -54.36661 11459 ft 370 kts 178°
2026-04-15 20:50 -26.09204 -54.36446 12053 ft 374 kts 178°
2026-04-15 20:50 -26.11813 -54.36226 12644 ft 378 kts 178°
2026-04-15 20:50 -26.14441 -54.36008 13234 ft 381 kts 178°
2026-04-15 20:51 -26.17096 -54.35788 13803 ft 384 kts 178°
2026-04-15 20:51 -26.19772 -54.35566 14328 ft 387 kts 178°
2026-04-15 20:51 -26.22463 -54.35348 14859 ft 389 kts 180°
2026-04-15 20:51 -26.25158 -54.35462 15384 ft 387 kts 191°
2026-04-15 20:52 -26.27772 -54.36122 15907 ft 385 kts 202°
2026-04-15 20:52 -26.30319 -54.37080 16439 ft 387 kts 202°
2026-04-15 20:52 -26.32881 -54.38037 16960 ft 389 kts 202°
2026-04-15 20:52 -26.35456 -54.38992 17485 ft 392 kts 202°
2026-04-15 20:53 -26.38051 -54.39950 18003 ft 394 kts 201°
2026-04-15 20:53 -26.40662 -54.40916 18479 ft 396 kts 202°
2026-04-15 20:53 -26.43285 -54.41890 18929 ft 398 kts 202°
2026-04-15 20:53 -26.45917 -54.42869 19362 ft 400 kts 202°
2026-04-15 20:54 -26.48569 -54.43858 19822 ft 402 kts 202°
2026-04-15 20:54 -26.51226 -54.44848 20252 ft 404 kts 202°
2026-04-15 20:54 -26.53903 -54.45847 20669 ft 407 kts 202°
2026-04-15 20:54 -26.56601 -54.46851 21081 ft 410 kts 202°
2026-04-15 20:55 -26.59313 -54.47858 21509 ft 412 kts 202°
2026-04-15 20:55 -26.62045 -54.48872 21928 ft 414 kts 202°
2026-04-15 20:55 -26.64791 -54.49896 22336 ft 417 kts 203°
2026-04-15 20:55 -26.67547 -54.50927 22721 ft 419 kts 203°
2026-04-15 20:56 -26.70273 -54.52077 23095 ft 418 kts 210°
2026-04-15 20:56 -26.72789 -54.53666 23475 ft 415 kts 218°
2026-04-15 20:56 -26.75179 -54.55418 23776 ft 417 kts 217°
2026-04-15 20:56 -26.77644 -54.57218 24090 ft 419 kts 217°
2026-04-15 20:57 -26.80059 -54.58981 24384 ft 421 kts 217°
2026-04-15 20:57 -26.82558 -54.60801 24681 ft 424 kts 217°
2026-04-15 20:57 -26.85000 -54.62580 24963 ft 426 kts 217°
2026-04-15 20:57 -26.87493 -54.64397 25278 ft 428 kts 217°
2026-04-15 20:58 -26.89992 -54.66219 25581 ft 430 kts 217°
2026-04-15 20:58 -26.92504 -54.68055 25884 ft 432 kts 217°
2026-04-15 20:58 -26.95025 -54.69902 26187 ft 434 kts 217°
2026-04-15 20:58 -26.97552 -54.71756 26480 ft 436 kts 217°
2026-04-15 20:59 -27.00097 -54.73619 26777 ft 438 kts 217°
2026-04-15 20:59 -27.02658 -54.75490 27062 ft 440 kts 217°
2026-04-15 20:59 -27.05223 -54.77363 27359 ft 441 kts 217°
2026-04-15 20:59 -27.06959 -54.78633 27563 ft 442 kts 217°
2026-04-15 21:00 -27.09502 -54.80499 27850 ft 444 kts 217°
2026-04-15 21:00 -27.12122 -54.82427 28150 ft 445 kts 217°
2026-04-15 21:00 -27.14719 -54.84342 28421 ft 448 kts 217°
2026-04-15 21:00 -27.17304 -54.86246 28677 ft 451 kts 217°
2026-04-15 21:01 -27.19971 -54.88210 28974 ft 453 kts 217°
2026-04-15 21:01 -27.22583 -54.90129 29277 ft 455 kts 217°
2026-04-15 21:01 -27.25263 -54.92093 29690 ft 454 kts 217°
2026-04-15 21:01 -27.27907 -54.94028 30103 ft 453 kts 217°
2026-04-15 21:02 -27.30543 -54.95975 30430 ft 452 kts 219°
2026-04-15 21:02 -27.32946 -54.98210 30737 ft 447 kts 229°
2026-04-15 21:02 -27.34966 -55.00828 31039 ft 443 kts 238°
2026-04-15 21:02 -27.36587 -55.03753 31410 ft 437 kts 246°
2026-04-15 21:03 -27.37967 -55.06804 31757 ft 437 kts 247°
2026-04-15 21:03 -27.39347 -55.09843 32097 ft 437 kts 247°
2026-04-15 21:03 -27.40732 -55.12889 32430 ft 438 kts 247°
2026-04-15 21:03 -27.42099 -55.15900 32756 ft 438 kts 247°
2026-04-15 21:04 -27.43501 -55.19003 33097 ft 439 kts 247°
2026-04-15 21:04 -27.44860 -55.22022 33426 ft 439 kts 247°
2026-04-15 21:04 -27.46259 -55.25134 33764 ft 440 kts 247°
2026-04-15 21:04 -27.47642 -55.28210 33884 ft 440 kts 248°
2026-04-15 21:05 -27.49018 -55.31275 33897 ft 438 kts 248°
2026-04-15 21:05 -27.51759 -55.37378 33887 ft 436 kts 248°
2026-04-15 21:06 -27.54476 -55.43431 33908 ft 436 kts 248°
2026-04-15 21:06 -27.57225 -55.49571 33888 ft 437 kts 248°
2026-04-15 21:07 -27.60020 -55.55607 33902 ft 441 kts 243°
2026-04-15 21:07 -27.64162 -55.60820 33892 ft 456 kts 224°
2026-04-15 21:08 -27.69460 -55.64869 33888 ft 461 kts 219°
2026-04-15 21:08 -27.74813 -55.68872 33881 ft 461 kts 220°
2026-04-15 21:09 -27.80151 -55.72896 33884 ft 462 kts 220°
2026-04-15 21:09 -27.85488 -55.76926 33887 ft 462 kts 220°
2026-04-15 21:10 -27.90839 -55.80959 33904 ft 462 kts 220°
2026-04-15 21:10 -27.96194 -55.84995 33889 ft 463 kts 220°
2026-04-15 21:11 -28.01551 -55.89039 33876 ft 463 kts 220°
2026-04-15 21:11 -28.06919 -55.93102 33875 ft 464 kts 220°
2026-04-15 21:12 -28.12285 -55.97163 33877 ft 464 kts 220°
2026-04-15 21:12 -28.17614 -56.01206 33871 ft 464 kts 220°
2026-04-15 21:13 -28.22987 -56.05281 33878 ft 465 kts 220°
2026-04-15 21:13 -28.28371 -56.09369 33875 ft 466 kts 220°
2026-04-15 21:14 -28.33745 -56.13472 33873 ft 466 kts 220°
2026-04-15 21:14 -28.39128 -56.17580 33869 ft 466 kts 220°
2026-04-15 21:15 -28.44515 -56.21685 33856 ft 466 kts 220°
2026-04-15 21:15 -28.49904 -56.25796 33862 ft 467 kts 220°
2026-04-15 21:16 -28.55292 -56.29918 33852 ft 467 kts 220°
2026-04-15 21:16 -28.60682 -56.34050 33864 ft 468 kts 220°
2026-04-15 21:17 -28.66078 -56.38182 33863 ft 468 kts 220°
2026-04-15 21:17 -28.71471 -56.42322 33859 ft 468 kts 221°
2026-04-15 21:18 -28.76866 -56.46471 33854 ft 468 kts 221°
2026-04-15 21:18 -28.82254 -56.50620 33855 ft 467 kts 221°
2026-04-15 21:19 -28.87644 -56.54782 33847 ft 468 kts 221°
2026-04-15 21:19 -28.93050 -56.58950 33868 ft 469 kts 220°
2026-04-15 21:20 -28.98449 -56.63115 33857 ft 468 kts 220°
2026-04-15 21:20 -29.03837 -56.67286 33852 ft 468 kts 220°
2026-04-15 21:21 -29.09223 -56.71462 33847 ft 467 kts 221°
2026-04-15 21:21 -29.14598 -56.75642 33851 ft 467 kts 220°
2026-04-15 21:22 -29.19978 -56.79818 33837 ft 467 kts 220°
2026-04-15 21:22 -29.25359 -56.83995 33837 ft 468 kts 220°
2026-04-15 21:23 -29.30746 -56.88179 33849 ft 467 kts 220°
2026-04-15 21:23 -29.36116 -56.92370 33844 ft 467 kts 220°
2026-04-15 21:24 -29.41477 -56.96563 33838 ft 466 kts 220°
2026-04-15 21:24 -29.46836 -57.00755 33836 ft 466 kts 220°
2026-04-15 21:25 -29.52153 -57.04920 33835 ft 466 kts 220°
2026-04-15 21:25 -29.57503 -57.09118 33832 ft 466 kts 220°
2026-04-15 21:26 -29.62853 -57.13311 33849 ft 465 kts 219°
2026-04-15 21:26 -29.68188 -57.17502 33842 ft 464 kts 219°
2026-04-15 21:27 -29.73508 -57.21687 33835 ft 463 kts 219°
2026-04-15 21:27 -29.78823 -57.25875 33839 ft 462 kts 219°
2026-04-15 21:28 -29.84126 -57.30061 33829 ft 463 kts 219°
2026-04-15 21:28 -29.89440 -57.34259 33824 ft 463 kts 219°
2026-04-15 21:29 -29.94752 -57.38455 33828 ft 463 kts 219°
2026-04-15 21:29 -30.00047 -57.42652 33827 ft 461 kts 219°
2026-04-15 21:30 -30.05319 -57.46839 33823 ft 459 kts 219°
2026-04-15 21:30 -30.10572 -57.51016 33830 ft 458 kts 218°
2026-04-15 21:31 -30.18424 -57.57259 33818 ft 456 kts 218°
2026-04-15 21:32 -30.26364 -57.63335 33802 ft 459 kts 210°
2026-04-15 21:32 -30.32416 -57.65828 33813 ft 464 kts 200°
2026-04-15 21:33 -30.38593 -57.67962 33827 ft 462 kts 200°
2026-04-15 21:33 -30.44738 -57.70111 33809 ft 461 kts 200°
2026-04-15 21:34 -30.50874 -57.72258 33798 ft 460 kts 200°
2026-04-15 21:34 -30.56990 -57.74396 33799 ft 459 kts 200°
2026-04-15 21:35 -30.63064 -57.76523 33811 ft 459 kts 200°
2026-04-15 21:35 -30.69181 -57.78663 33803 ft 459 kts 200°
2026-04-15 21:36 -30.75299 -57.80802 33796 ft 460 kts 200°
2026-04-15 21:36 -30.81427 -57.82937 33785 ft 460 kts 200°
2026-04-15 21:37 -30.87555 -57.85079 33783 ft 460 kts 200°
2026-04-15 21:37 -30.93691 -57.87228 33789 ft 461 kts 200°
2026-04-15 21:38 -30.99843 -57.89375 33789 ft 462 kts 200°
2026-04-15 21:38 -31.06011 -57.91537 33795 ft 463 kts 200°
2026-04-15 21:39 -31.12174 -57.93702 33827 ft 462 kts 200°
2026-04-15 21:39 -31.18318 -57.95864 33846 ft 461 kts 200°
2026-04-15 21:40 -31.24458 -57.98027 33839 ft 461 kts 200°
2026-04-15 21:40 -31.30610 -58.00191 33835 ft 461 kts 200°
2026-04-15 21:41 -31.36743 -58.02347 33826 ft 456 kts 200°
2026-04-15 21:41 -31.42748 -58.04468 33827 ft 455 kts 200°
2026-04-15 21:42 -31.48881 -58.06649 33811 ft 464 kts 200°
2026-04-15 21:42 -31.55066 -58.08838 33808 ft 465 kts 200°
2026-04-15 21:43 -31.61263 -58.11029 33805 ft 465 kts 200°
2026-04-15 21:43 -31.67455 -58.13229 33806 ft 465 kts 200°
2026-04-15 21:44 -31.72607 -58.15058 33811 ft 466 kts 199°
2026-04-15 21:44 -31.79992 -58.16984 33805 ft 468 kts 193°
2026-04-15 21:45 -31.86402 -58.18410 33812 ft 469 kts 193°
2026-04-15 21:45 -31.92808 -58.19837 33812 ft 469 kts 193°
2026-04-15 21:46 -31.99203 -58.21300 33835 ft 467 kts 192°
2026-04-15 21:46 -32.05557 -58.22763 33839 ft 464 kts 192°
2026-04-15 21:47 -32.10820 -58.23971 33841 ft 463 kts 192°
2026-04-15 21:47 -32.17133 -58.25423 33840 ft 461 kts 192°
2026-04-15 21:48 -32.23428 -58.26869 33837 ft 460 kts 192°
2026-04-15 21:48 -32.29710 -58.28314 33833 ft 460 kts 192°
2026-04-15 21:49 -32.35989 -58.29762 33832 ft 459 kts 192°
2026-04-15 21:49 -32.42262 -58.31216 33830 ft 459 kts 192°
2026-04-15 21:50 -32.48534 -58.32672 33819 ft 460 kts 192°
2026-04-15 21:50 -32.54824 -58.34131 33815 ft 461 kts 192°
2026-04-15 21:51 -32.61125 -58.35595 33817 ft 462 kts 192°
2026-04-15 21:51 -32.67424 -58.37065 33470 ft 461 kts 192°
2026-04-15 21:51 -32.70577 -58.37800 33188 ft 461 kts 191°
2026-04-15 21:52 -32.73709 -58.38527 32935 ft 456 kts 190°
2026-04-15 21:52 -32.76839 -58.39254 32695 ft 459 kts 190°
2026-04-15 21:52 -32.79990 -58.39990 32445 ft 461 kts 190°
2026-04-15 21:52 -32.83136 -58.40725 32198 ft 461 kts 190°
2026-04-15 21:53 -32.86275 -58.41458 31955 ft 458 kts 190°
2026-04-15 21:53 -32.89395 -58.42188 31699 ft 456 kts 190°
2026-04-15 21:53 -32.92496 -58.42915 31181 ft 453 kts 189°
2026-04-15 21:53 -32.95591 -58.43637 30657 ft 452 kts 189°
2026-04-15 21:54 -32.98667 -58.44354 30123 ft 451 kts 189°
2026-04-15 21:54 -33.01737 -58.45074 29535 ft 450 kts 189°
2026-04-15 21:54 -33.04798 -58.45796 28999 ft 446 kts 189°
2026-04-15 21:54 -33.07841 -58.46513 28485 ft 443 kts 189°
2026-04-15 21:55 -33.10856 -58.47222 27958 ft 440 kts 189°
2026-04-15 21:55 -33.13847 -58.47927 27458 ft 437 kts 189°
2026-04-15 21:55 -33.16824 -58.48610 26856 ft 435 kts 187°
2026-04-15 21:55 -33.19839 -58.48958 25731 ft 447 kts 183°
2026-04-15 21:56 -33.22961 -58.49228 25004 ft 450 kts 182°
2026-04-15 21:56 -33.26059 -58.49470 24609 ft 443 kts 182°
2026-04-15 21:56 -33.29121 -58.49699 24014 ft 442 kts 182°
2026-04-15 21:56 -33.32196 -58.49929 23374 ft 443 kts 182°
2026-04-15 21:57 -33.35267 -58.50171 22788 ft 441 kts 182°
2026-04-15 21:57 -33.38323 -58.50422 22286 ft 439 kts 182°
2026-04-15 21:57 -33.41358 -58.50675 21767 ft 436 kts 183°
2026-04-15 21:57 -33.44383 -58.50930 21243 ft 435 kts 183°
2026-04-15 21:58 -33.47390 -58.51186 20711 ft 432 kts 183°
2026-04-15 21:58 -33.50377 -58.51439 20182 ft 430 kts 183°
2026-04-15 21:58 -33.53352 -58.51686 19641 ft 428 kts 183°
2026-04-15 21:58 -33.56321 -58.51933 19101 ft 426 kts 183°
2026-04-15 21:59 -33.59273 -58.52179 18601 ft 423 kts 183°
2026-04-15 21:59 -33.62175 -58.52420 18284 ft 415 kts 183°
2026-04-15 21:59 -33.65038 -58.52657 17716 ft 411 kts 184°
2026-04-15 21:59 -33.67918 -58.52896 16805 ft 418 kts 183°
2026-04-15 22:00 -33.70815 -58.53137 16182 ft 417 kts 183°
2026-04-15 22:00 -33.73703 -58.53377 15567 ft 415 kts 182°
2026-04-15 22:00 -33.76570 -58.53616 15056 ft 410 kts 182°
2026-04-15 22:00 -33.79387 -58.53851 14571 ft 404 kts 182°
2026-04-15 22:01 -33.82175 -58.54083 14044 ft 400 kts 181°
2026-04-15 22:01 -33.84926 -58.54310 13334 ft 393 kts 181°
2026-04-15 22:01 -33.87630 -58.54536 12714 ft 382 kts 181°
2026-04-15 22:01 -33.90203 -58.54755 12578 ft 359 kts 181°
2026-04-15 22:02 -33.92629 -58.54965 12384 ft 342 kts 181°
2026-04-15 22:02 -33.94971 -58.55164 11947 ft 335 kts 180°
2026-04-15 22:02 -33.97281 -58.55356 11444 ft 331 kts 180°
2026-04-15 22:02 -33.99563 -58.55544 10939 ft 327 kts 180°
2026-04-15 22:03 -34.01798 -58.55728 10440 ft 325 kts 180°
2026-04-15 22:03 -34.04038 -58.55914 9953 ft 322 kts 180°
2026-04-15 22:03 -34.06224 -58.56097 9804 ft 307 kts 179°
2026-04-15 22:03 -34.08331 -58.56278 9581 ft 301 kts 179°
2026-04-15 22:04 -34.10437 -58.56456 9279 ft 298 kts 178°
2026-04-15 22:04 -34.12490 -58.56629 8984 ft 295 kts 178°
2026-04-15 22:04 -34.14531 -58.56800 8677 ft 293 kts 178°
2026-04-15 22:04 -34.16533 -58.56968 8373 ft 291 kts 178°
2026-04-15 22:05 -34.18547 -58.57138 8053 ft 289 kts 178°
2026-04-15 22:05 -34.20538 -58.57305 7580 ft 285 kts 178°
2026-04-15 22:05 -34.22507 -58.57471 7031 ft 282 kts 178°
2026-04-15 22:05 -34.24455 -58.57636 6527 ft 279 kts 178°
2026-04-15 22:06 -34.26384 -58.57799 5986 ft 276 kts 178°
2026-04-15 22:06 -34.28291 -58.57962 5462 ft 272 kts 178°
2026-04-15 22:06 -34.30161 -58.58122 4959 ft 267 kts 178°
2026-04-15 22:06 -34.31992 -58.58280 4467 ft 261 kts 178°
2026-04-15 22:07 -34.33794 -58.58431 3896 ft 259 kts 180°
2026-04-15 22:07 -34.35556 -58.58578 3616 ft 246 kts 179°
2026-04-15 22:07 -34.37200 -58.58719 3489 ft 227 kts 180°
2026-04-15 22:07 -34.38720 -58.58855 3274 ft 214 kts 180°
2026-04-15 22:08 -34.40176 -58.58981 3017 ft 204 kts 180°
2026-04-15 22:08 -34.41541 -58.59095 3005 ft 190 kts 178°
2026-04-15 22:08 -34.42828 -58.59201 3002 ft 182 kts 178°
2026-04-15 22:08 -34.44081 -58.59302 3007 ft 180 kts 176°
2026-04-15 22:09 -34.45301 -58.59116 3009 ft 176 kts 156°
2026-04-15 22:09 -34.46353 -58.58419 2950 ft 172 kts 137°
2026-04-15 22:09 -34.47115 -58.57325 2806 ft 170 kts 125°
2026-04-15 22:09 -34.47767 -58.56159 2634 ft 164 kts 124°
2026-04-15 22:10 -34.48395 -58.55037 2424 ft 154 kts 125°
2026-04-15 22:10 -34.48970 -58.54010 2235 ft 141 kts 125°
2026-04-15 22:10 -34.49518 -58.53032 2041 ft 139 kts 125°
2026-04-15 22:10 -34.50062 -58.52061 1854 ft 137 kts 124°
2026-04-15 22:11 -34.50595 -58.51109 1677 ft 136 kts 124°
2026-04-15 22:11 -34.51129 -58.50155 1514 ft 137 kts 125°
2026-04-15 22:11 -34.51665 -58.49198 1339 ft 136 kts 125°
2026-04-15 22:11 -34.52192 -58.48256 1158 ft 135 kts 126°
2026-04-15 22:12 -34.52720 -58.47312 993 ft 135 kts 127°
2026-04-15 22:12 -34.53253 -58.46366 824 ft 136 kts 126°
2026-04-15 22:12 -34.53788 -58.45413 579 ft 136 kts 126°
2026-04-15 22:12 -34.54322 -58.44450 440 ft 136 kts 127°
2026-04-15 22:13 -34.54855 -58.43492 258 ft 136 kts 126°
2026-04-15 22:13 -34.55384 -58.42546 58 ft 135 kts 126°
2026-04-15 22:13 -34.55854 -58.41708 26 ft 90 kts 124°
2026-04-15 22:13 -34.56036 -58.41380 27 ft 9 kts 111°
2026-04-15 22:14 -34.56005 -58.41354 30 ft 3 kts 31°
2026-04-15 22:14 -34.55982 -58.41333 27 ft 5 kts 35°
2026-04-15 22:14 -34.55959 -58.41314 29 ft 1 kts 34°
2026-04-15 22:14 -34.55955 -58.41311 28 ft 0 kts 34°
2026-04-15 22:15 -34.55951 -58.41309 27 ft 1 kts 27°
2026-04-15 22:15 -34.55939 -58.41307 25 ft 3 kts
2026-04-15 22:15 -34.55916 -58.41308 27 ft 5 kts 358°
2026-04-15 22:15 -34.55875 -58.41290 25 ft 8 kts 32°
2026-04-15 22:16 -34.55823 -58.41307 28 ft 10 kts 303°
2026-04-15 22:16 -34.55793 -58.41348 25 ft 6 kts 343°
2026-04-15 22:16 -34.55768 -58.41332 25 ft 4 kts 36°
2026-04-15 22:16 -34.55758 -58.41323 25 ft 0 kts 35°